Easton, MD

5:32 AM EST on November 18, 2017 (GMT -0500)
Easton / Newnam

Weather History for KESN - January, 2012

Change the Weather History Date:

Thursday, January 26, 2012

  Actual Average Record
Temperature  
Mean Temperature 45 °F -  
Max Temperature 55 °F 49 °F 76 °F (1950)
Min Temperature 35 °F 30 °F 7 °F (1961)
Degree Days  
Heating Degree Days 20    
Moisture  
Dew Point 43 °F    
Average Humidity 91    
Maximum Humidity 100    
Minimum Humidity 32    
Precipitation  
Precipitation 0.00 in - - ()
Sea Level Pressure  
Sea Level Pressure 30.09 in    
Wind  
Wind Speed 4 mph (SE)    
Max Wind Speed 16 mph    
Max Gust Speed 18 mph    
Visibility 8 miles    
Events      
Averages and records for this station are not official NWS values.
T = Trace of Precipitation, MM = Missing Value Source: NWS Daily Summary

Daily Weather History Graph

Daily Weather History Graph

Search for Another Location

Airport or City:

Trip Planner

Search our weather history database for the weather conditions in past years. The results will help you decide how hot, cold, wet, or windy it might be!

Date:

Astronomy

Jan. 26, 2012 Rise Set
Actual Time 7:15 AM EST 5:18 PM EST
Civil Twilight 6:47 AM EST 5:46 PM EST
Nautical Twilight 6:14 AM EST 6:19 PM EST
Astronomical Twilight 5:43 AM EST 6:50 PM EST
Moon 8:44 AM EST (1/26) 9:05 PM EST (1/26)
Length of Visible Light 10h 59m
Length of Day
10h 02m
Waxing Crescent, 12% of the Moon is Illuminated
Jan 26
Waxing Crescent
Jan 30
First Quarter
Feb 7
Full
Feb 14
Last Quarter
Feb 21
New

Hourly Weather History & Observations

Time (EST) Temp. Windchill Dew Point Humidity Pressure Visibility Wind Dir Wind Speed Gust Speed Precip Events Conditions
12:06 AM 37.4 °F - 33.8 °F 87% 30.26 in 7.0 mi Calm Calm - N/A   Clear
12:27 AM 35.6 °F - 33.8 °F 93% 30.25 in 7.0 mi Calm Calm - N/A   Clear
12:45 AM 35.6 °F - 33.8 °F 93% 30.24 in 7.0 mi Calm Calm - N/A   Clear
1:03 AM 37.4 °F 34.9 °F 33.8 °F 87% 30.24 in 7.0 mi SE 3.5 mph - N/A   Clear
1:24 AM 37.4 °F - 35.6 °F 93% 30.25 in 7.0 mi Calm Calm - N/A   Scattered Clouds
2:03 AM 37.4 °F 34.9 °F 35.6 °F 93% 30.23 in 7.0 mi SSE 3.5 mph - N/A   Clear
2:21 AM 37.4 °F 34.9 °F 35.6 °F 93% 30.22 in 7.0 mi SSE 3.5 mph - N/A   Scattered Clouds
2:42 AM 39.2 °F - 35.6 °F 87% 30.24 in 10.0 mi Calm Calm - N/A   Mostly Cloudy
3:00 AM 37.4 °F - 35.6 °F 93% 30.23 in 7.0 mi Calm Calm - N/A   Overcast
3:21 AM 37.4 °F 34.9 °F 35.6 °F 93% 30.22 in 7.0 mi East 3.5 mph - N/A   Overcast
3:39 AM 37.4 °F 34.9 °F 35.6 °F 93% 30.22 in 7.0 mi ENE 3.5 mph - N/A   Scattered Clouds
3:57 AM 37.4 °F 34.9 °F 35.6 °F 93% 30.22 in 7.0 mi NE 3.5 mph - N/A   Scattered Clouds
4:18 AM 37.4 °F 34.9 °F 35.6 °F 93% 30.24 in 7.0 mi NNE 3.5 mph - N/A   Mostly Cloudy
4:36 AM 37.4 °F 33.8 °F 35.6 °F 93% 30.23 in 7.0 mi NE 4.6 mph - N/A   Overcast
4:57 AM 37.4 °F 33.8 °F 35.6 °F 93% 30.22 in 7.0 mi East 4.6 mph - N/A   Scattered Clouds
5:12 AM 37.4 °F 32.8 °F 37.4 °F 100% 30.22 in 7.0 mi East 5.8 mph - N/A   Scattered Clouds
5:53 AM 39.2 °F 37.0 °F 37.4 °F 93% 30.22 in 10.0 mi SE 3.5 mph - N/A   Overcast
6:50 AM 39.2 °F 37.0 °F 37.4 °F 93% 30.21 in 6.0 mi ESE 3.5 mph - N/A   Overcast
7:50 AM 39.2 °F 35.9 °F 39.2 °F 100% 30.19 in 5.0 mi ESE 4.6 mph - N/A   Overcast
8:50 AM 41.0 °F 38.0 °F 39.2 °F 93% 30.18 in 5.0 mi ESE 4.6 mph - N/A   Overcast
9:50 AM 44.6 °F 41.4 °F 41.0 °F 87% 30.17 in 5.0 mi ESE 5.8 mph - N/A   Overcast
10:50 AM 48.2 °F - 19.4 °F 32% 30.15 in 6.0 mi ESE 5.8 mph - N/A   Haze
11:53 AM 53.6 °F - 46.4 °F 77% 30.11 in 6.0 mi SSE 9.2 mph - N/A   Haze
12:50 PM 55.4 °F - 48.2 °F 77% 30.06 in 6.0 mi SSE 12.7 mph - N/A   Haze
1:50 PM 55.4 °F - 48.2 °F 77% 30.02 in 7.0 mi SSE 12.7 mph 18.4 mph N/A   Overcast
2:53 PM 55.4 °F - 50.0 °F 82% 30.00 in 7.0 mi SSE 10.4 mph - N/A   Overcast
3:50 PM 55.4 °F - 50.0 °F 82% 29.99 in 10.0 mi SSE 10.4 mph - N/A   Overcast
4:50 PM 55.4 °F - 50.0 °F 82% 29.98 in 10.0 mi SSE 10.4 mph - N/A   Overcast
5:50 PM 53.6 °F - 50.0 °F 88% 29.96 in 10.0 mi SE 5.8 mph - N/A   Overcast
6:50 PM 51.8 °F - 51.8 °F 100% 29.96 in 10.0 mi SSE 9.2 mph - N/A   Overcast
7:50 PM 53.6 °F - 53.6 °F 100% 29.94 in 10.0 mi SSE 8.1 mph - N/A   Mostly Cloudy
9:21 PM 51.8 °F - 51.8 °F 100% 29.89 in 10.0 mi SSE 9.2 mph - N/A   Scattered Clouds
9:39 PM 51.8 °F - 51.8 °F 100% 29.88 in 10.0 mi SSE 10.4 mph - N/A   Scattered Clouds
10:00 PM 53.6 °F - 53.6 °F 100% 29.87 in 10.0 mi South 9.2 mph - N/A   Mostly Cloudy
10:18 PM 53.6 °F - 51.8 °F 94% 29.86 in 10.0 mi SSE 9.2 mph - N/A   Scattered Clouds
10:39 PM 53.6 °F - 53.6 °F 100% 29.85 in 10.0 mi South 9.2 mph - N/A   Scattered Clouds
10:57 PM 53.6 °F - 53.6 °F 100% 29.84 in 10.0 mi South 10.4 mph - N/A   Clear
11:18 PM 53.6 °F - 53.6 °F 100% 29.82 in 10.0 mi South 11.5 mph - N/A   Clear
11:36 PM 53.6 °F - 53.6 °F 100% 29.80 in 10.0 mi South 16.1 mph - N/A   Clear
11:54 PM 53.6 °F - 53.6 °F 100% 29.80 in 10.0 mi South 12.7 mph - N/A   Clear